ZHONGXING-2D

Last updated on Tue Sep 22 2026 00:03:14 GMT+0000 (Coordinated Universal Time)

1 43920U 19001A 26264.68049912 -.00000341 00000+0 00000+0 0 9995 2 43920 0.0394 344.8690 0001346 319.8716 70.8093 1.00269195 55043
UTC large
Height (km)
Speed (km/s)
/
Latitude / Longitude
Inclination (degrees)
Orbital Period (minutes)
Azimuth
Elevation
Range (km)
Doppler Factor

Next 0 passes for location: London (51.5072 / 0.1276)

No passes found over London.
ZHONGXING-2D